EW3204 Weather Reports


Display with metric or nautical units.
time (UTC)temp
F
wind
direction
speed
MPH
gust
MPH
rain 1hr
in
rain 24hr
in
rain mn
in
humidity
%
barometer
mb
20260506170100 71 92 4.0 0.0 0.00 0.00 0.00 32 1014.9
20260506164611 70 57 3.0 0.0 0.00 0.00 0.00 33 1014.8
20260506163055 70 88 3.0 0.0 0.00 0.00 0.00 34 1014.8
20260506161551 69 127 4.0 0.0 0.00 0.00 0.00 35 1014.9
20260506160050 68 104 2.0 0.0 0.00 0.00 0.00 35 1014.8
20260506154550 67 76 3.0 0.0 0.00 0.00 0.00 36 1014.8
20260506153040 66 65 2.0 0.0 0.00 0.00 0.00 38 1014.9
20260506151539 66 71 1.0 0.0 0.00 0.00 0.00 37 1014.9
20260506150037 65 52 0.0 0.0 0.00 0.00 0.00 40 1014.8
20260506144532 63 301 1.0 0.0 0.00 0.00 0.00 43 1014.8
20260506143033 61 301 0.0 0.0 0.00 0.00 0.00 45 1014.6
20260506141525 59 301 0.0 0.0 0.00 0.00 0.00 48 1014.6
20260506140026 57 301 0.0 0.0 0.00 0.00 0.00 52 1014.5
20260506134523 55 301 0.0 0.0 0.00 0.00 0.00 55 1014.3
20260506133021 54 300 2.0 0.0 0.00 0.00 0.00 55 1014.1
20260506131519 54 301 2.0 0.0 0.00 0.00 0.00 53 1013.8
20260506130017 53 301 4.0 0.0 0.00 0.00 0.00 57 1013.6
20260506124514 53 301 1.0 0.0 0.00 0.00 0.00 56 1013.5
20260506123014 53 301 2.0 0.0 0.00 0.00 0.00 57 1013.3
20260506121515 53 301 2.0 0.0 0.00 0.00 0.00 57 1013.2
20260506120011 52 301 3.0 0.0 0.00 0.00 0.00 57 1013.1
20260506114510 53 295 1.0 0.0 0.00 0.00 0.00 55 1013.1
20260506113008 55 5 1.0 0.0 0.00 0.00 0.00 52 1012.9
20260506111505 54 5 0.0 0.0 0.00 0.00 0.00 53 1012.9
20260506110004 55 5 3.0 0.0 0.00 0.00 0.00 53 1012.9
20260506104504 54 5 2.0 0.0 0.00 0.00 0.00 53 1013.0
20260506103059 56 102 1.0 0.0 0.00 0.00 0.00 50 1012.9
20260506101558 56 138 3.0 0.0 0.00 0.00 0.00 50 1012.8
20260506100056 58 95 3.0 0.0 0.00 0.00 0.00 47 1012.8
20260506100022 58 151 2.0 0.0 0.00 0.00 0.00 47 1012.8
20260506094555 58 356 1.0 0.0 0.00 0.00 0.00 47 1012.6
20260506093055 60 275 5.0 0.0 0.00 0.00 0.00 47 1012.6
20260506091551 58 223 3.0 0.0 0.00 0.00 0.00 48 1012.7
20260506090047 59 162 5.0 0.0 0.00 0.00 0.00 45 1013.0
20260506084546 60 265 7.0 0.0 0.00 0.00 0.00 46 1012.9
20260506083047 60 286 5.0 0.0 0.00 0.00 0.00 46 1013.1
20260506081549 60 225 3.0 0.0 0.00 0.00 0.00 45 1013.1
20260506073039 60 229 7.0 0.0 0.00 0.00 0.00 45 1013.1
20260506071547 60 325 1.0 0.0 0.00 0.00 0.00 47 1013.0
20260506061508 61 293 8.0 0.0 0.00 0.00 0.00 44 1012.7
20260506044502 62 317 10.0 0.0 0.00 0.00 0.00 42 1012.0
20260506043004 62 288 8.0 0.0 0.00 0.00 0.00 41 1012.1
20260506041600 62 241 10.0 0.0 0.00 0.00 0.00 41 1011.9
20260506040100 62 294 12.0 0.0 0.00 0.00 0.00 41 1011.7
20260506034555 63 274 12.0 0.0 0.00 0.00 0.00 40 1011.5
20260506033055 63 296 12.0 0.0 0.00 0.00 0.00 40 1011.2
20260506031601 63 273 13.0 0.0 0.00 0.00 0.00 39 1011.0
20260506030111 63 257 13.0 0.0 0.00 0.00 0.00 38 1010.9
20260506024554 63 280 10.0 0.0 0.00 0.00 0.00 37 1010.7
20260506023055 63 269 12.0 0.0 0.00 0.00 0.00 35 1010.6
20260506021553 63 269 12.0 0.0 0.00 0.00 0.00 36 1010.5
20260506020052 64 248 12.0 0.0 0.00 0.00 0.00 36 1010.4
20260506014558 64 269 14.0 0.0 0.00 0.00 0.00 36 1010.3
20260506013051 64 231 15.0 0.0 0.00 0.00 0.00 36 1010.2
20260506011556 65 263 16.0 0.0 0.00 0.00 0.00 36 1010.5
20260506010055 65 297 14.0 0.0 0.00 0.00 0.00 34 1010.8
20260506004623 66 272 10.0 0.0 0.00 0.00 0.00 33 1010.6
20260506003049 66 247 14.0 0.0 0.00 0.00 0.00 34 1010.4
20260506001548 67 243 12.0 0.0 0.00 0.00 0.00 33 1010.2
20260506000049 67 300 12.0 0.0 0.00 0.00 0.00 34 1010.2
20260505234610 67 264 12.0 0.0 0.00 0.00 0.00 33 1010.2
20260505233046 68 233 12.0 0.0 0.00 0.00 0.00 32 1010.1
20260505231549 68 277 11.0 0.0 0.00 0.00 0.00 30 1010.0
20260505230050 68 271 14.0 0.0 0.00 0.00 0.00 32 1010.1
20260505224546 68 249 11.0 0.0 0.00 0.00 0.00 32 1010.2
20260505223058 68 300 8.0 0.0 0.00 0.00 0.00 33 1010.5
20260505221557 68 283 9.0 0.0 0.00 0.00 0.00 33 1010.8
20260505220048 68 231 6.0 0.0 0.00 0.00 0.00 33 1010.9
20260505214552 67 236 11.0 0.0 0.00 0.00 0.00 34 1010.9
20260505213043 68 254 12.0 0.0 0.00 0.00 0.00 35 1011.0
20260505211540 67 291 13.0 0.0 0.00 0.00 0.00 36 1011.1
20260505210040 67 282 10.0 0.0 0.00 0.00 0.00 38 1011.3
20260505204538 67 273 11.0 0.0 0.00 0.00 0.00 38 1011.2
20260505203037 66 285 9.0 0.0 0.00 0.00 0.00 38 1011.3
20260505201537 66 246 11.0 0.0 0.00 0.00 0.00 38 1011.3
20260505200037 68 250 11.0 0.0 0.00 0.00 0.00 37 1011.3
20260505194537 67 297 13.0 0.0 0.00 0.00 0.00 40 1011.3
20260505193034 67 300 15.0 0.0 0.00 0.00 0.00 40 1011.2
20260505191534 66 311 13.0 0.0 0.00 0.00 0.00 42 1011.4
20260505190037 66 305 13.0 0.0 0.00 0.00 0.00 42 1011.5
20260505184533 66 327 14.0 0.0 0.00 0.00 0.00 44 1011.4
20260505183043 66 270 9.0 0.0 0.00 0.00 0.00 39 1011.3
20260505181537 67 273 10.0 0.0 0.00 0.00 0.00 41 1011.4
20260505180030 67 304 10.0 0.0 0.00 0.00 0.00 39 1011.3
20260505174527 67 316 10.0 0.0 0.00 0.00 0.00 42 1011.0
20260505173029 65 288 12.0 0.0 0.00 0.00 0.00 42 1011.0
20260505171526 65 304 14.0 0.0 0.00 0.00 0.00 45 1010.7